User: anonymous   Login
Location: Unspecified
(0.0000°N, 0.0000°E)
Time: 00:07:32
(UTC+00:00)
Language:

WGS F3 (USA 211) - Orbit

View from above orbital plane
View from above orbital plane
View from above satellite
View from above satellite

Ground track
Ground track

The orbit data is extracted from the following two-line orbital elements,

1 36108U 09068A   14329.61935422 0.00000000  00000-0  00000-0 0    05
2 36108   0.0047 275.4171 0003229 353.7640   6.2324  1.00270000    09
Epoch (UTC): 25 November 2014 14:51:52
Eccentricity: 0.0003229
inclination: 0.0047°
perigee height: 35773 km
apogee height: 35800 km
right ascension of ascending node: 275.4171°
argument of perigee: 353.7640°
revolutions per day: 1.00270000
mean anomaly at epoch: 6.2324°
orbit number at epoch: 0

The dashed part of the orbit path shows where the satellite is in the earth's shadow,  

DLR